Location: Casilda
(33.0440°S, 61.1680°W)
Time: 11:10:33
(UTC-03:00)

ISS - Pass Details

Date: 16 April 2021
Orbit: 418 x 422 km, 51.6° (Epoch: 11 April)

Event Time Altitude Azimuth Distance (km) Brightness Sun altitude
Rises 20:01:22 0° 327° (NNW) 2,356 0.5 -17.6°
Reaches altitude 10° 20:03:29 10° 333° (NNW) 1,499 -0.6 -18.0°
Enters shadow 20:06:29 46° 30° (NNE) 575 -3.3 -18.7°
